When you browse on this site, cookies collect data to enhance your experience and personalize the content and advertising you see.
Visit our Privacy Policy to learn more. By continuing to use the site, you agree to this use of cookies and data.
  • Em Portugal
  • Lista de países
  • Para 7 dias
  • Temperatura da água
  • Mapas de satélite
  • Mapa do tempo
  • Widgets de tempo
  • user-avatar
    Iniciar Sessão

    Previsão horária em Bolotniki

    Hoje, 21 Março, Quinta-feira

    Tempo Temperatura Precipitação Vento Pressão Humidade
    00:00 0°C° 0.4 mm 4 m/s 753 mmHg 74%
    01:00 0°C° 0.4 mm 5 m/s 753 mmHg 76%
    02:00 0°C° 0 mm 4 m/s 753 mmHg 82%
    03:00 0°C° 0.1 mm 4 m/s 753 mmHg 84%
    04:00 0°C° 0.1 mm 4 m/s 753 mmHg 86%
    05:00 +1°C° 0.1 mm 4 m/s 753 mmHg 88%
    06:00 +1°C° 0 mm 4 m/s 753 mmHg 87%
    07:00 +1°C° 0 mm 4 m/s 753 mmHg 86%
    08:00 +1°C° 0 mm 4 m/s 754 mmHg 83%
    09:00 +3°C° 0 mm 4 m/s 754 mmHg 77%
    10:00 +4°C° 0 mm 4 m/s 754 mmHg 72%
    11:00 +6°C° 0 mm 4 m/s 755 mmHg 66%
    12:00 +6°C° 0 mm 4 m/s 754 mmHg 62%
    13:00 +7°C° 0 mm 4 m/s 754 mmHg 58%
    14:00 +8°C° 0 mm 5 m/s 754 mmHg 54%
    15:00 +7°C° 0 mm 4 m/s 754 mmHg 56%
    16:00 +8°C° 0 mm 3 m/s 754 mmHg 58%
    17:00 +8°C° 0 mm 3 m/s 753 mmHg 61%
    18:00 +7°C° 0 mm 3 m/s 753 mmHg 66%
    19:00 +5°C° 0 mm 3 m/s 753 mmHg 72%
    20:00 +5°C° 0 mm 3 m/s 752 mmHg 77%
    21:00 +5°C° 0.5 mm 3 m/s 752 mmHg 81%
    22:00 +4°C° 0.5 mm 4 m/s 751 mmHg 84%
    23:00 +4°C° 0.5 mm 4 m/s 751 mmHg 87%

    Amanhã, 22 Março, Sexta-feira

    Tempo Temperatura Precipitação Vento Pressão Humidade
    00:00 +5°C° 0.7 mm 4 m/s 750 mmHg 89%
    01:00 +5°C° 0.7 mm 4 m/s 750 mmHg 90%
    02:00 +5°C° 0.7 mm 4 m/s 749 mmHg 91%
    03:00 +5°C° 0.1 mm 5 m/s 749 mmHg 90%
    04:00 +5°C° 0.1 mm 6 m/s 749 mmHg 88%
    05:00 +5°C° 0.1 mm 6 m/s 749 mmHg 86%
    06:00 +4°C° 0.1 mm 7 m/s 749 mmHg 81%
    07:00 +4°C° 0.1 mm 8 m/s 750 mmHg 77%
    08:00 +2°C° 0.1 mm 8 m/s 750 mmHg 72%
    09:00 +2°C° 0 mm 8 m/s 751 mmHg 63%
    10:00 +2°C° 0 mm 8 m/s 752 mmHg 55%
    11:00 +2°C° 0 mm 8 m/s 753 mmHg 46%
    12:00 +2°C° 0 mm 8 m/s 753 mmHg 45%
    13:00 +4°C° 0 mm 8 m/s 753 mmHg 44%
    14:00 +4°C° 0 mm 8 m/s 754 mmHg 42%
    15:00 +4°C° 0 mm 8 m/s 754 mmHg 43%
    16:00 +3°C° 0 mm 7 m/s 754 mmHg 44%
    17:00 +3°C° 0 mm 7 m/s 754 mmHg 44%
    18:00 +2°C° 0 mm 6 m/s 755 mmHg 50%
    19:00 +1°C° 0 mm 6 m/s 755 mmHg 55%
    20:00 0°C° 0 mm 5 m/s 756 mmHg 60%
    21:00 -1°C° 0 mm 5 m/s 756 mmHg 62%
    22:00 -1°C° 0 mm 5 m/s 756 mmHg 65%
    23:00 -2°C° 0 mm 5 m/s 756 mmHg 67%

    Depois de amanhã, 23 Março, Sábado

    Tempo Temperatura Precipitação Vento Pressão Humidade
    00:00 -2°C° 0 mm 5 m/s 756 mmHg 70%
    01:00 -2°C° 0 mm 4 m/s 757 mmHg 72%
    02:00 -3°C° 0 mm 4 m/s 757 mmHg 74%
    03:00 -3°C° 0 mm 4 m/s 757 mmHg 76%
    04:00 -2°C° 0 mm 3 m/s 757 mmHg 78%
    05:00 -2°C° 0 mm 3 m/s 757 mmHg 79%
    06:00 -2°C° 0 mm 2 m/s 758 mmHg 78%
    07:00 -1°C° 0 mm 2 m/s 758 mmHg 76%
    08:00 -1°C° 0 mm 2 m/s 758 mmHg 74%
    09:00 +2°C° 0 mm 2 m/s 758 mmHg 67%
    10:00 +4°C° 0 mm 1 m/s 757 mmHg 61%
    11:00 +6°C° 0 mm 1 m/s 757 mmHg 54%
    12:00 +7°C° 0 mm 1 m/s 757 mmHg 51%
    13:00 +6°C° 0 mm 2 m/s 756 mmHg 48%
    14:00 +7°C° 0 mm 2 m/s 756 mmHg 45%
    15:00 +7°C° 0 mm 2 m/s 755 mmHg 47%
    16:00 +7°C° 0 mm 2 m/s 755 mmHg 49%
    17:00 +7°C° 0 mm 2 m/s 754 mmHg 50%
    18:00 +6°C° 0 mm 2 m/s 754 mmHg 54%
    19:00 +3°C° 0 mm 3 m/s 753 mmHg 58%
    20:00 +2°C° 0 mm 3 m/s 753 mmHg 61%
    21:00 +2°C° 0.3 mm 3 m/s 752 mmHg 62%
    22:00 +3°C° 0.3 mm 3 m/s 751 mmHg 64%
    23:00 +3°C° 0.3 mm 4 m/s 751 mmHg 65%

    24 Março, Domingo

    Tempo Temperatura Precipitação Vento Pressão Humidade
    00:00 +3°C° 0.3 mm 3 m/s 750 mmHg 71%
    01:00 +3°C° 0.3 mm 3 m/s 750 mmHg 78%
    02:00 +3°C° 0.3 mm 3 m/s 750 mmHg 84%
    03:00 +3°C° 0 mm 3 m/s 750 mmHg 83%
    04:00 +2°C° 0 mm 3 m/s 750 mmHg 83%
    05:00 0°C° 0 mm 4 m/s 750 mmHg 82%
    06:00 0°C° 0 mm 4 m/s 750 mmHg 78%
    07:00 0°C° 0 mm 4 m/s 750 mmHg 74%
    08:00 +1°C° 0 mm 5 m/s 751 mmHg 69%
    09:00 +2°C° 0 mm 5 m/s 751 mmHg 63%
    10:00 +3°C° 0 mm 5 m/s 751 mmHg 56%
    11:00 +5°C° 0 mm 5 m/s 751 mmHg 49%
    12:00 +4°C° 0 mm 6 m/s 751 mmHg 47%
    13:00 +5°C° 0 mm 6 m/s 751 mmHg 45%
    14:00 +5°C° 0 mm 6 m/s 751 mmHg 42%
    15:00 +5°C° 0 mm 6 m/s 751 mmHg 42%
    16:00 +5°C° 0 mm 5 m/s 750 mmHg 42%
    17:00 +5°C° 0 mm 5 m/s 750 mmHg 41%
    18:00 +2°C° 0 mm 5 m/s 750 mmHg 45%
    19:00 +1°C° 0 mm 4 m/s 751 mmHg 49%
    20:00 +1°C° 0 mm 3 m/s 751 mmHg 53%
    21:00 0°C° 0 mm 3 m/s 751 mmHg 56%
    22:00 +1°C° 0 mm 2 m/s 750 mmHg 59%
    23:00 -1°C° 0 mm 2 m/s 750 mmHg 62%

    25 Março, Segunda-feira

    Tempo Temperatura Precipitação Vento Pressão Humidade
    00:00 -1°C° 0 mm 2 m/s 750 mmHg 63%
    01:00 -1°C° 0 mm 2 m/s 750 mmHg 64%
    02:00 -1°C° 0 mm 2 m/s 750 mmHg 65%
    03:00 -1°C° 0 mm 2 m/s 750 mmHg 68%
    04:00 -1°C° 0 mm 2 m/s 749 mmHg 70%
    05:00 -2°C° 0 mm 2 m/s 749 mmHg 73%
    06:00 -1°C° 0 mm 2 m/s 749 mmHg 71%
    07:00 +1°C° 0 mm 2 m/s 748 mmHg 69%
    08:00 0°C° 0 mm 3 m/s 748 mmHg 67%
    09:00 +2°C° 0 mm 3 m/s 748 mmHg 60%
    10:00 +3°C° 0 mm 3 m/s 747 mmHg 53%
    11:00 +4°C° 0 mm 4 m/s 747 mmHg 46%
    12:00 +4°C° 0 mm 4 m/s 746 mmHg 44%
    13:00 +5°C° 0 mm 4 m/s 745 mmHg 43%
    14:00 +5°C° 0 mm 4 m/s 745 mmHg 42%
    15:00 +5°C° 0.3 mm 4 m/s 744 mmHg 50%
    16:00 +4°C° 0.3 mm 3 m/s 743 mmHg 58%
    17:00 +4°C° 0.3 mm 3 m/s 743 mmHg 66%
    18:00 +3°C° 0.3 mm 3 m/s 743 mmHg 71%
    19:00 +2°C° 0.3 mm 3 m/s 742 mmHg 76%
    20:00 +2°C° 0.3 mm 3 m/s 742 mmHg 80%
    21:00 +1°C° 0.1 mm 3 m/s 742 mmHg 83%
    22:00 +1°C° 0.1 mm 2 m/s 741 mmHg 86%
    23:00 +1°C° 0.1 mm 2 m/s 741 mmHg 88%

    26 Março, Terça-feira

    Tempo Temperatura Precipitação Vento Pressão Humidade
    00:00 -1°C° 0 mm 2 m/s 741 mmHg 90%
    01:00 -2°C° 0 mm 2 m/s 740 mmHg 91%
    02:00 0°C° 0 mm 1 m/s 740 mmHg 93%
    03:00 0°C° 0 mm 1 m/s 740 mmHg 93%
    04:00 -1°C° 0 mm 1 m/s 740 mmHg 94%
    05:00 -2°C° 0 mm 0 m/s 740 mmHg 94%
    06:00 0°C° 0 mm 1 m/s 740 mmHg 90%
    07:00 +1°C° 0 mm 1 m/s 741 mmHg 86%
    08:00 +2°C° 0 mm 1 m/s 741 mmHg 82%
    09:00 +2°C° 0 mm 2 m/s 741 mmHg 74%
    10:00 +4°C° 0 mm 2 m/s 742 mmHg 66%
    11:00 +4°C° 0 mm 3 m/s 742 mmHg 58%
    12:00 +4°C° 0.3 mm 3 m/s 742 mmHg 60%
    13:00 +4°C° 0.3 mm 4 m/s 743 mmHg 62%
    14:00 +4°C° 0.3 mm 4 m/s 743 mmHg 64%
    15:00 +3°C° 0.4 mm 5 m/s 743 mmHg 69%
    16:00 +2°C° 0.4 mm 5 m/s 744 mmHg 73%
    17:00 +1°C° 0.4 mm 5 m/s 744 mmHg 78%
    18:00 +1°C° 0.6 mm 5 m/s 745 mmHg 80%
    19:00 -1°C° 0.6 mm 6 m/s 745 mmHg 82%
    20:00 -1°C° 0.6 mm 6 m/s 746 mmHg 83%
    21:00 -1°C° 0.1 mm 6 m/s 747 mmHg 84%
    22:00 -1°C° 0.1 mm 5 m/s 747 mmHg 85%
    23:00 -1°C° 0.1 mm 5 m/s 748 mmHg 87%
    Mostrar mais